Flag for Germany Weather past 2 weeks in Calw, Baden-Württemberg, Germany

Now
64 °F

Passing clouds.


Feels Like: 64 °F
Forecast: 50 / 78 °F
Wind: 1 mph from Northeast

Location: Stuttgart-Echterdingen

Current Time: Jul 31, 2015 at 11:38:04 PM

Latest Report: Jul 31, 2015 at 11:00 PM


Visibility: 31 mi

Pressure: 29.94 "Hg

Humidity: 45%

Dew point: 42 °F

Location of CalwLocation

Historic Weather in Calw — Graph

°F

Calw temperature yesterday

Maximum temperature yesterday: 67 °F (at 8:00 PM)
Minimum temperature yesterday: 49 °F (at 4:00 AM)
Average temperature yesterday: 60 °F

Past Weeks' High & Low Weather Summary

 TemperatureHumidityPressure
High94 °F (Jul 22, 3:00 PM)92% (Jul 23, 8:00 AM)30.12 "Hg (Jul 23, 8:00 AM)
Low49 °F (Jul 31, 7:00 AM)26% (Jul 22, 3:00 PM)29.65 "Hg (Jul 24, 8:00 PM)
Average70 °F60%29.91 "Hg
* Reported Jul 16 10:00 PM — Jul 31 10:00 PM, Calw, Weather by CustomWeather, © 2015

Note: Actual official high and low records may vary slightly from our data, if they occured in-between our weather recording intervals... More about our weather records

Advertising

Calw weather history for previous 24 hours

 ConditionsComfort  
Time TempWeatherWind HumidityBarometerVisibility
10:00 PM
Fri, Jul 31
65 °FOvercast.1 mph43%29.93 "Hg37 mi
9:00 PM69 °FOvercast.3 mph37%29.92 "Hg43 mi
8:00 PM71 °FOvercast.5 mph34%29.92 "Hg43 mi
7:00 PM73 °FOvercast.3 mph32%29.91 "Hg43 mi
6:00 PM73 °FOvercast.3 mph32%29.93 "Hg43 mi
4:00 PM73 °FPartly sunny.5 mph31%29.95 "Hg43 mi
3:00 PM71 °FPartly sunny.3 mph32%29.98 "Hg43 mi
2:00 PM70 °FPartly sunny.5 mph36%30.00 "Hg37 mi
1:00 PM69 °FScattered clouds.3 mph42%30.04 "Hg37 mi
12:00 PM65 °FScattered clouds.3 mph45%30.05 "Hg37 mi
10:00 AM60 °FPassing clouds.2 mph58%30.09 "Hg34 mi
9:00 AM57 °FPassing clouds.2 mph69%30.10 "Hg34 mi
8:00 AM54 °FPassing clouds.1 mph77%30.11 "Hg34 mi
7:00 AM49 °FPassing clouds.1 mph85%30.12 "Hg34 mi
4:00 AM51 °FPassing clouds.1 mph78%30.11 "Hg31 mi
3:00 AM52 °FPassing clouds.3 mph77%30.11 "Hg31 mi
2:00 AM54 °FPassing clouds.3 mph70%30.10 "Hg31 mi
1:00 AM55 °FPassing clouds.5 mph67%30.09 "Hg31 mi
Weather by CustomWeather, © 2015

See weather overviewHow to use our weather pages